Year,Month,Day,Hour,Minute,Value (Times are PST for temperature in C)
2016,11,25,00,00,5.80
2016,11,25,00,01,5.80
2016,11,25,00,02,5.80
2016,11,25,00,03,5.80
2016,11,25,00,04,5.80
2016,11,25,00,05,5.80
2016,11,25,00,06,5.80
2016,11,25,00,07,5.80
2016,11,25,00,08,5.80
2016,11,25,00,09,5.90
2016,11,25,00,10,5.90
2016,11,25,00,11,5.90
2016,11,25,00,12,5.90
2016,11,25,00,13,5.80
2016,11,25,00,14,5.80
2016,11,25,00,15,5.70
2016,11,25,00,16,5.60
2016,11,25,00,17,5.60
2016,11,25,00,18,5.50
2016,11,25,00,19,5.50
2016,11,25,00,20,5.40
2016,11,25,00,21,5.40
2016,11,25,00,22,5.40
2016,11,25,00,23,5.30
2016,11,25,00,24,5.30
2016,11,25,00,25,5.30
2016,11,25,00,26,5.20
2016,11,25,00,27,5.20
2016,11,25,00,28,5.20
2016,11,25,00,29,5.20
2016,11,25,00,30,5.20
2016,11,25,00,31,5.20
2016,11,25,00,32,5.20
2016,11,25,00,33,5.20
2016,11,25,00,34,5.20
2016,11,25,00,35,5.20
2016,11,25,00,36,5.20
2016,11,25,00,37,5.20
2016,11,25,00,38,5.10
2016,11,25,00,39,5.10
2016,11,25,00,40,5.10
2016,11,25,00,41,5.20
2016,11,25,00,42,5.10
2016,11,25,00,43,5.10
2016,11,25,00,44,5.10
2016,11,25,00,45,5.10
2016,11,25,00,46,5.10
2016,11,25,00,47,5.10
2016,11,25,00,48,5.10
2016,11,25,00,49,5.10
2016,11,25,00,50,5.10
2016,11,25,00,51,5.10
2016,11,25,00,52,5.10
2016,11,25,00,53,5.00
2016,11,25,00,54,5.00
2016,11,25,00,55,5.00
2016,11,25,00,56,5.00
2016,11,25,00,57,5.00
2016,11,25,00,58,5.00
2016,11,25,00,59,5.10
2016,11,25,01,00,5.10
2016,11,25,01,01,5.10
2016,11,25,01,02,5.10
2016,11,25,01,03,5.10
2016,11,25,01,04,5.10
2016,11,25,01,05,5.10
2016,11,25,01,06,5.10
2016,11,25,01,07,5.10
2016,11,25,01,08,5.10
2016,11,25,01,09,5.10
2016,11,25,01,10,5.10
2016,11,25,01,11,5.10
2016,11,25,01,12,5.10
2016,11,25,01,13,5.00
2016,11,25,01,14,5.00
2016,11,25,01,15,5.00
2016,11,25,01,16,5.00
2016,11,25,01,17,5.00
2016,11,25,01,18,5.00
2016,11,25,01,19,5.00
2016,11,25,01,20,5.00
2016,11,25,01,21,5.00
2016,11,25,01,22,5.00
2016,11,25,01,23,5.00
2016,11,25,01,24,5.00
2016,11,25,01,25,5.00
2016,11,25,01,26,5.00
2016,11,25,01,27,5.00
2016,11,25,01,28,5.00
2016,11,25,01,29,5.00
2016,11,25,01,30,4.90
2016,11,25,01,31,4.90
2016,11,25,01,32,4.90
2016,11,25,01,33,4.90
2016,11,25,01,34,4.90
2016,11,25,01,35,4.90
2016,11,25,01,36,4.90
2016,11,25,01,37,4.90
2016,11,25,01,38,4.90
2016,11,25,01,39,4.90
2016,11,25,01,40,4.90
2016,11,25,01,41,4.90
2016,11,25,01,42,5.00
2016,11,25,01,43,5.00
2016,11,25,01,44,5.00
2016,11,25,01,45,5.00
2016,11,25,01,46,5.00
2016,11,25,01,47,5.00
2016,11,25,01,48,5.00
2016,11,25,01,49,5.00
2016,11,25,01,50,5.00
2016,11,25,01,51,5.00
2016,11,25,01,52,5.00
2016,11,25,01,53,5.00
2016,11,25,01,54,5.00
2016,11,25,01,55,5.00
2016,11,25,01,56,5.00
2016,11,25,01,57,5.00
2016,11,25,01,58,5.00
2016,11,25,01,59,4.90
2016,11,25,02,00,4.90
2016,11,25,02,01,4.90
2016,11,25,02,02,4.90
2016,11,25,02,03,4.80
2016,11,25,02,04,4.80
2016,11,25,02,05,4.80
2016,11,25,02,06,4.70
2016,11,25,02,07,4.70
2016,11,25,02,08,4.70
2016,11,25,02,09,4.60
2016,11,25,02,10,4.60
2016,11,25,02,11,4.60
2016,11,25,02,12,4.60
2016,11,25,02,13,4.60
2016,11,25,02,14,4.50
2016,11,25,02,15,4.50
2016,11,25,02,16,4.40
2016,11,25,02,17,4.40
2016,11,25,02,18,4.40
2016,11,25,02,19,4.40
2016,11,25,02,20,4.40
2016,11,25,02,21,4.40
2016,11,25,02,22,4.40
2016,11,25,02,23,4.30
2016,11,25,02,24,4.30
2016,11,25,02,25,4.30
2016,11,25,02,26,4.30
2016,11,25,02,27,4.30
2016,11,25,02,28,4.30
2016,11,25,02,29,4.30
2016,11,25,02,30,4.30
2016,11,25,02,31,4.30
2016,11,25,02,32,4.30
2016,11,25,02,33,4.30
2016,11,25,02,34,4.30
2016,11,25,02,35,4.30
2016,11,25,02,36,4.30
2016,11,25,02,37,4.20
2016,11,25,02,38,4.20
2016,11,25,02,39,4.20
2016,11,25,02,40,4.20
2016,11,25,02,41,4.20
2016,11,25,02,42,4.20
2016,11,25,02,43,4.20
2016,11,25,02,44,4.20
2016,11,25,02,45,4.20
2016,11,25,02,46,4.20
2016,11,25,02,47,4.10
2016,11,25,02,48,4.10
2016,11,25,02,49,4.10
2016,11,25,02,50,4.10
2016,11,25,02,51,4.10
2016,11,25,02,52,4.10
2016,11,25,02,53,4.10
2016,11,25,02,54,4.10
2016,11,25,02,55,4.10
2016,11,25,02,56,4.10
2016,11,25,02,57,4.10
2016,11,25,02,58,4.10
2016,11,25,02,59,4.00
2016,11,25,03,00,4.00
2016,11,25,03,01,4.00
2016,11,25,03,02,4.00
2016,11,25,03,03,3.90
2016,11,25,03,04,3.90
2016,11,25,03,05,3.90
2016,11,25,03,06,3.90
2016,11,25,03,07,3.80
2016,11,25,03,08,3.80
2016,11,25,03,09,3.80
2016,11,25,03,10,3.80
2016,11,25,03,11,3.80
2016,11,25,03,12,3.80
2016,11,25,03,13,3.80
2016,11,25,03,14,3.80
2016,11,25,03,15,3.80
2016,11,25,03,16,3.80
2016,11,25,03,17,3.80
2016,11,25,03,18,3.80
2016,11,25,03,19,3.80
2016,11,25,03,20,3.80
2016,11,25,03,21,3.80
2016,11,25,03,22,3.70
2016,11,25,03,23,3.70
2016,11,25,03,24,3.70
2016,11,25,03,25,3.70
2016,11,25,03,26,3.70
2016,11,25,03,27,3.70
2016,11,25,03,28,3.70
2016,11,25,03,29,3.70
2016,11,25,03,30,3.70
2016,11,25,03,31,3.70
2016,11,25,03,32,3.70
2016,11,25,03,33,3.70
2016,11,25,03,34,3.70
2016,11,25,03,35,3.70
2016,11,25,03,36,3.70
2016,11,25,03,37,3.70
2016,11,25,03,38,3.70
2016,11,25,03,39,3.70
2016,11,25,03,40,3.70
2016,11,25,03,41,3.70
2016,11,25,03,42,3.70
2016,11,25,03,43,3.60
2016,11,25,03,44,3.60
2016,11,25,03,45,3.60
2016,11,25,03,46,3.60
2016,11,25,03,47,3.60
2016,11,25,03,48,3.60
2016,11,25,03,49,3.60
2016,11,25,03,50,3.60
2016,11,25,03,51,3.60
2016,11,25,03,52,3.60
2016,11,25,03,53,3.50
2016,11,25,03,54,3.50
2016,11,25,03,55,3.50
2016,11,25,03,56,3.50
2016,11,25,03,57,3.50
2016,11,25,03,58,3.50
2016,11,25,03,59,3.50
2016,11,25,04,00,3.50
2016,11,25,04,01,3.50
2016,11,25,04,02,3.50
2016,11,25,04,03,3.50
2016,11,25,04,04,3.50
2016,11,25,04,05,3.50
2016,11,25,04,06,3.60
2016,11,25,04,07,3.60
2016,11,25,04,08,3.60
2016,11,25,04,09,3.60
2016,11,25,04,10,3.60
2016,11,25,04,11,3.70
2016,11,25,04,12,3.70
2016,11,25,04,13,3.70
2016,11,25,04,14,3.70
2016,11,25,04,15,3.70
2016,11,25,04,16,3.70
2016,11,25,04,17,3.70
2016,11,25,04,18,3.70
2016,11,25,04,19,3.70
2016,11,25,04,20,3.70
2016,11,25,04,21,3.70
2016,11,25,04,22,3.70
2016,11,25,04,23,3.70
2016,11,25,04,24,3.70
2016,11,25,04,25,3.80
2016,11,25,04,26,3.80
2016,11,25,04,27,3.80
2016,11,25,04,28,3.80
2016,11,25,04,29,3.80
2016,11,25,04,30,3.80
2016,11,25,04,31,3.80
2016,11,25,04,32,3.80
2016,11,25,04,33,3.90
2016,11,25,04,34,3.90
2016,11,25,04,35,3.90
2016,11,25,04,36,3.90
2016,11,25,04,37,4.00
2016,11,25,04,38,4.00
2016,11,25,04,39,4.10
2016,11,25,04,40,4.20
2016,11,25,04,41,4.20
2016,11,25,04,42,4.30
2016,11,25,04,43,4.30
2016,11,25,04,44,4.40
2016,11,25,04,45,4.40
2016,11,25,04,46,4.40
2016,11,25,04,47,4.50
2016,11,25,04,48,4.50
2016,11,25,04,49,4.50
2016,11,25,04,50,4.50
2016,11,25,04,51,4.50
2016,11,25,04,52,4.60
2016,11,25,04,53,4.60
2016,11,25,04,54,4.60
2016,11,25,04,55,4.60
2016,11,25,04,56,4.60
2016,11,25,04,57,4.60
2016,11,25,04,58,4.60
2016,11,25,04,59,4.60
2016,11,25,05,00,4.60
2016,11,25,05,01,4.60
2016,11,25,05,02,4.60
2016,11,25,05,03,4.70
2016,11,25,05,04,4.70
2016,11,25,05,05,4.70
2016,11,25,05,06,4.70
2016,11,25,05,07,4.70
2016,11,25,05,08,4.70
2016,11,25,05,09,4.70
2016,11,25,05,10,4.70
2016,11,25,05,11,4.70
2016,11,25,05,12,4.70
2016,11,25,05,13,4.70
2016,11,25,05,14,4.50
2016,11,25,05,15,4.50
2016,11,25,05,16,4.50
2016,11,25,05,17,4.50
2016,11,25,05,18,4.50
2016,11,25,05,19,4.50
2016,11,25,05,20,4.50
2016,11,25,05,21,4.50
2016,11,25,05,22,4.50
2016,11,25,05,23,4.50
2016,11,25,05,24,4.50
2016,11,25,08,22,5.40
2016,11,25,08,23,5.40
2016,11,25,08,24,5.40
2016,11,25,08,25,5.40
2016,11,25,08,26,5.40
2016,11,25,08,27,5.40
2016,11,25,08,28,5.40
2016,11,25,08,29,5.40
2016,11,25,08,30,5.40
2016,11,25,08,31,5.40
2016,11,25,08,32,5.40
2016,11,25,08,33,5.40
2016,11,25,08,34,5.40
2016,11,25,08,35,5.50
2016,11,25,08,36,5.50
2016,11,25,08,37,5.50
2016,11,25,08,38,5.50
2016,11,25,08,39,5.60
2016,11,25,08,40,5.60
2016,11,25,08,41,5.60
2016,11,25,08,42,5.60
2016,11,25,08,43,5.60
2016,11,25,08,44,5.60
2016,11,25,08,45,5.70
2016,11,25,08,46,5.70
2016,11,25,08,47,5.70
2016,11,25,08,48,5.70
2016,11,25,08,49,5.70
2016,11,25,08,50,5.80
2016,11,25,08,51,5.80
2016,11,25,08,52,5.80
2016,11,25,08,53,5.80
2016,11,25,08,54,5.80
2016,11,25,08,55,5.90
2016,11,25,08,56,5.90
2016,11,25,08,57,5.90
2016,11,25,08,58,5.90
2016,11,25,08,59,5.90
2016,11,25,09,00,6.00
2016,11,25,09,01,6.00
2016,11,25,09,02,6.00
2016,11,25,09,03,6.10
2016,11,25,09,04,6.10
2016,11,25,09,05,6.10
2016,11,25,09,06,6.10
2016,11,25,09,07,6.10
2016,11,25,09,08,6.10
2016,11,25,09,09,6.10
2016,11,25,09,10,6.20
2016,11,25,09,11,6.20
2016,11,25,09,12,6.20
2016,11,25,09,13,6.20
2016,11,25,09,14,6.30
2016,11,25,09,15,6.30
2016,11,25,09,16,6.30
2016,11,25,09,17,6.30
2016,11,25,09,18,6.40
2016,11,25,09,19,6.40
2016,11,25,09,20,6.50
2016,11,25,09,21,6.50
2016,11,25,09,22,6.50
2016,11,25,09,23,6.60
2016,11,25,09,24,6.60
2016,11,25,09,25,6.60
2016,11,25,09,26,6.60
2016,11,25,09,27,6.70
2016,11,25,09,28,6.70
2016,11,25,09,29,6.70
2016,11,25,09,30,6.80
2016,11,25,09,31,6.80
2016,11,25,09,32,6.80
2016,11,25,09,33,6.90
2016,11,25,09,34,6.90
2016,11,25,09,35,6.90
2016,11,25,09,36,7.00
2016,11,25,09,37,7.00
2016,11,25,09,38,7.10
2016,11,25,09,39,7.10
2016,11,25,09,40,7.20
2016,11,25,09,41,7.20
2016,11,25,09,42,7.20
2016,11,25,09,43,7.20
2016,11,25,09,44,7.20
2016,11,25,09,45,7.20
2016,11,25,09,46,7.20
2016,11,25,09,47,7.20
2016,11,25,09,48,7.20
2016,11,25,09,49,7.20
2016,11,25,09,50,7.20
2016,11,25,09,51,7.20
2016,11,25,09,52,7.20
2016,11,25,09,53,7.30
2016,11,25,09,54,7.30
2016,11,25,09,55,7.30
2016,11,25,09,56,7.30
2016,11,25,09,57,7.30
2016,11,25,09,58,7.30
2016,11,25,09,59,7.30
2016,11,25,10,00,7.30
2016,11,25,10,01,7.20
2016,11,25,10,02,7.20
2016,11,25,10,03,7.20
2016,11,25,10,04,7.20
2016,11,25,10,05,7.20
2016,11,25,10,06,7.30
2016,11,25,10,07,7.30
2016,11,25,10,08,7.30
2016,11,25,10,09,7.30
2016,11,25,10,10,7.30
2016,11,25,10,11,7.30
2016,11,25,10,12,7.30
2016,11,25,10,13,7.30
2016,11,25,10,14,7.30
2016,11,25,10,15,7.30
2016,11,25,10,16,7.40
2016,11,25,10,17,7.30
2016,11,25,10,18,7.30
2016,11,25,10,19,7.30
2016,11,25,10,20,7.30
2016,11,25,10,21,7.30
2016,11,25,10,22,7.30
2016,11,25,10,23,7.30
2016,11,25,10,24,7.30
2016,11,25,10,25,7.30
2016,11,25,10,26,7.30
2016,11,25,10,27,7.40
2016,11,25,10,28,7.40
2016,11,25,10,29,7.40
2016,11,25,10,30,7.50
2016,11,25,10,31,7.50
2016,11,25,10,32,7.50
2016,11,25,10,33,7.50
2016,11,25,10,34,7.50
2016,11,25,10,35,7.50
2016,11,25,10,36,7.50
2016,11,25,10,37,7.50
2016,11,25,10,38,7.50
2016,11,25,10,39,7.50
2016,11,25,10,40,7.50
2016,11,25,10,41,7.50
2016,11,25,10,42,7.50
2016,11,25,10,43,7.50
2016,11,25,10,44,7.50
2016,11,25,10,45,7.50
2016,11,25,10,46,7.50
2016,11,25,10,47,7.50
2016,11,25,10,48,7.40
2016,11,25,10,49,7.40
2016,11,25,10,50,7.40
2016,11,25,10,51,7.40
2016,11,25,10,52,7.40
2016,11,25,10,53,7.40
2016,11,25,10,54,7.40
2016,11,25,10,55,7.40
2016,11,25,10,56,7.40
2016,11,25,10,57,7.40
2016,11,25,10,58,7.40
2016,11,25,10,59,7.40
2016,11,25,11,00,7.40
2016,11,25,11,01,7.40
2016,11,25,11,02,7.40
2016,11,25,11,03,7.40
2016,11,25,11,04,7.40
2016,11,25,11,05,7.40
2016,11,25,11,06,7.40
2016,11,25,11,07,7.40
2016,11,25,11,08,7.40
2016,11,25,11,09,7.40
2016,11,25,11,10,7.40
2016,11,25,11,11,7.40
2016,11,25,11,12,7.40
2016,11,25,11,13,7.40
2016,11,25,11,14,7.50
2016,11,25,11,15,7.50
2016,11,25,11,16,7.50
2016,11,25,11,17,7.50
2016,11,25,11,18,7.60
2016,11,25,11,19,7.60
2016,11,25,11,20,7.60
2016,11,25,11,21,7.60
2016,11,25,11,22,7.60
2016,11,25,11,23,7.70
2016,11,25,11,24,7.70
2016,11,25,11,25,7.70
2016,11,25,11,26,7.70
2016,11,25,11,27,7.70
2016,11,25,11,28,7.70
2016,11,25,11,29,7.70
2016,11,25,11,30,7.70
2016,11,25,11,31,7.70
2016,11,25,11,32,7.70
2016,11,25,11,33,7.70
2016,11,25,11,34,7.70
2016,11,25,11,35,7.80
2016,11,25,11,36,7.80
2016,11,25,11,37,7.80
2016,11,25,11,38,7.80
2016,11,25,11,39,7.80
2016,11,25,11,40,7.80
2016,11,25,11,41,7.80
2016,11,25,11,42,7.80
2016,11,25,11,43,7.80
2016,11,25,11,44,7.90
2016,11,25,11,45,7.90
2016,11,25,11,46,7.90
2016,11,25,11,47,7.90
2016,11,25,11,48,7.90
2016,11,25,11,49,8.00
2016,11,25,11,50,8.00
2016,11,25,11,51,8.00
2016,11,25,11,52,8.00
2016,11,25,11,53,8.00
2016,11,25,11,54,8.00
2016,11,25,11,55,8.10
2016,11,25,11,56,8.10
2016,11,25,11,57,8.10
2016,11,25,11,58,8.10
2016,11,25,11,59,8.20
2016,11,25,12,00,8.20
2016,11,25,12,01,8.20
2016,11,25,12,02,8.30
2016,11,25,12,03,8.30
2016,11,25,12,04,8.40
2016,11,25,12,05,8.40
2016,11,25,12,06,8.40
2016,11,25,12,07,8.40
2016,11,25,12,08,8.40
2016,11,25,12,09,8.40
2016,11,25,12,10,8.40
2016,11,25,12,11,8.40
2016,11,25,12,12,8.40
2016,11,25,12,13,8.40
2016,11,25,12,14,8.30
2016,11,25,12,15,8.30
2016,11,25,12,16,8.40
2016,11,25,12,17,8.40
2016,11,25,12,18,8.50
2016,11,25,12,19,8.40
2016,11,25,12,20,8.40
2016,11,25,12,21,8.30
2016,11,25,12,22,8.30
2016,11,25,12,23,8.30
2016,11,25,12,24,8.20
2016,11,25,12,25,8.20
2016,11,25,12,26,8.20
2016,11,25,12,27,8.20
2016,11,25,12,28,8.20
2016,11,25,12,29,8.20
2016,11,25,12,30,8.20
2016,11,25,12,31,8.20
2016,11,25,12,32,8.20
2016,11,25,12,33,8.20
2016,11,25,12,34,8.30
2016,11,25,12,35,8.30
2016,11,25,12,36,8.30
2016,11,25,12,37,8.30
2016,11,25,12,38,8.20
2016,11,25,12,39,8.20
2016,11,25,12,40,8.10
2016,11,25,12,41,8.20
2016,11,25,12,42,8.20
2016,11,25,12,43,8.20
2016,11,25,12,44,8.20
2016,11,25,12,45,8.20
2016,11,25,12,46,8.30
2016,11,25,12,47,8.30
2016,11,25,12,48,8.30
2016,11,25,12,49,8.30
2016,11,25,12,50,8.30
2016,11,25,12,51,8.30
2016,11,25,12,52,8.40
2016,11,25,12,53,8.40
2016,11,25,12,54,8.50
2016,11,25,12,55,8.50
2016,11,25,12,56,8.60
2016,11,25,12,57,8.60
2016,11,25,12,58,8.70
2016,11,25,12,59,8.70
2016,11,25,13,00,8.70
2016,11,25,13,01,8.60
2016,11,25,13,02,8.60
2016,11,25,13,03,8.50
2016,11,25,13,04,8.40
2016,11,25,13,05,8.40
2016,11,25,13,06,8.40
2016,11,25,13,07,8.40
2016,11,25,13,08,8.40
2016,11,25,13,09,8.40
2016,11,25,13,10,8.30
2016,11,25,13,11,8.30
2016,11,25,13,12,8.20
2016,11,25,13,13,8.20
2016,11,25,13,14,8.20
2016,11,25,13,15,8.30
2016,11,25,13,16,8.30
2016,11,25,13,17,8.30
2016,11,25,13,18,8.40
2016,11,25,13,19,8.40
2016,11,25,13,20,8.40
2016,11,25,13,21,8.50
2016,11,25,13,22,8.50
2016,11,25,13,23,8.50
2016,11,25,13,24,8.40
2016,11,25,13,25,8.40
2016,11,25,13,26,8.40
2016,11,25,13,27,8.40
2016,11,25,13,28,8.40
2016,11,25,13,29,8.40
2016,11,25,13,30,8.40
2016,11,25,13,31,8.50
2016,11,25,13,32,8.50
2016,11,25,13,33,8.60
2016,11,25,13,34,8.60
2016,11,25,13,35,8.70
2016,11,25,13,36,8.70
2016,11,25,13,37,8.80
2016,11,25,13,38,8.80
2016,11,25,13,39,8.80
2016,11,25,13,40,8.90
2016,11,25,13,41,8.90
2016,11,25,13,42,9.00
2016,11,25,13,43,9.00
2016,11,25,13,44,9.10
2016,11,25,13,45,9.10
2016,11,25,13,46,9.10
2016,11,25,13,47,9.10
2016,11,25,13,48,9.10
2016,11,25,13,49,9.10
2016,11,25,13,50,9.10
2016,11,25,13,51,9.10
2016,11,25,13,52,9.10
2016,11,25,13,53,9.10
2016,11,25,13,54,9.10
2016,11,25,13,55,9.10
2016,11,25,13,56,9.10
2016,11,25,13,57,9.10
2016,11,25,13,58,9.10
2016,11,25,13,59,9.10
2016,11,25,14,00,9.10
2016,11,25,14,01,9.10
2016,11,25,14,02,9.10
2016,11,25,14,03,9.20
2016,11,25,14,04,9.20
2016,11,25,14,05,9.20
2016,11,25,14,06,9.20
2016,11,25,14,07,9.20
2016,11,25,14,08,9.20
2016,11,25,14,09,9.20
2016,11,25,14,10,9.30
2016,11,25,14,11,9.30
2016,11,25,14,12,9.30
2016,11,25,14,13,9.30
2016,11,25,14,14,9.40
2016,11,25,14,15,9.40
2016,11,25,14,16,9.40
2016,11,25,14,17,9.40
2016,11,25,14,18,9.40
2016,11,25,14,19,9.40
2016,11,25,14,20,9.40
2016,11,25,14,21,9.40
2016,11,25,14,22,9.40
2016,11,25,14,23,9.40
2016,11,25,14,24,9.40
2016,11,25,14,25,9.40
2016,11,25,14,26,9.30
2016,11,25,14,27,9.30
2016,11,25,14,28,9.30
2016,11,25,14,29,9.30
2016,11,25,14,30,9.30
2016,11,25,14,31,9.30
2016,11,25,14,32,9.30
2016,11,25,14,33,9.30
2016,11,25,14,34,9.30
2016,11,25,14,35,9.30
2016,11,25,14,36,9.30
2016,11,25,14,37,9.30
2016,11,25,14,38,9.30
2016,11,25,14,39,9.30
2016,11,25,14,40,9.30
2016,11,25,14,41,9.30
2016,11,25,14,42,9.30
2016,11,25,14,43,9.30
2016,11,25,14,44,9.30
2016,11,25,14,45,9.30
2016,11,25,14,46,9.30
2016,11,25,14,47,9.30
2016,11,25,14,48,9.30
2016,11,25,14,49,9.30
2016,11,25,14,50,9.30
2016,11,25,14,51,9.30
2016,11,25,14,52,9.30
2016,11,25,14,53,9.30
2016,11,25,14,54,9.30
2016,11,25,14,55,9.30
2016,11,25,14,56,9.30
2016,11,25,14,57,9.30
2016,11,25,14,58,9.30
2016,11,25,14,59,9.30
2016,11,25,15,00,9.30
2016,11,25,15,01,9.30
2016,11,25,15,02,9.30
2016,11,25,15,03,9.30
2016,11,25,15,04,9.30
2016,11,25,15,05,9.30
2016,11,25,15,06,9.30
2016,11,25,15,07,9.30
2016,11,25,15,08,9.40
2016,11,25,15,09,9.40
2016,11,25,15,10,9.40
2016,11,25,15,11,9.40
2016,11,25,15,12,9.40
2016,11,25,15,13,9.40
2016,11,25,15,14,9.40
2016,11,25,15,15,9.30
2016,11,25,15,16,9.30
2016,11,25,15,17,9.30
2016,11,25,15,18,9.30
2016,11,25,15,19,9.30
2016,11,25,15,20,9.30
2016,11,25,15,21,9.30
2016,11,25,15,22,9.30
2016,11,25,15,23,9.30
2016,11,25,15,24,9.30
2016,11,25,15,25,9.30
2016,11,25,15,26,9.30
2016,11,25,15,27,9.30
2016,11,25,15,28,9.30
2016,11,25,15,29,9.30
2016,11,25,15,30,9.30
2016,11,25,15,31,9.30
2016,11,25,15,32,9.30
2016,11,25,15,33,9.20
2016,11,25,15,34,9.20
2016,11,25,15,35,9.20
2016,11,25,15,36,9.20
2016,11,25,15,37,9.10
2016,11,25,15,38,9.10
2016,11,25,15,39,9.10
2016,11,25,15,40,9.10
2016,11,25,15,41,9.10
2016,11,25,15,42,9.00
2016,11,25,15,43,9.00
2016,11,25,15,44,9.00
2016,11,25,15,45,9.00
2016,11,25,15,46,9.00
2016,11,25,15,47,9.00
2016,11,25,15,48,9.00
2016,11,25,15,49,9.00
2016,11,25,15,50,9.00
2016,11,25,15,51,9.10
2016,11,25,15,52,9.00
2016,11,25,15,53,9.00
2016,11,25,15,54,9.00
2016,11,25,15,55,9.00
2016,11,25,15,56,9.00
2016,11,25,15,57,9.00
2016,11,25,15,58,8.90
2016,11,25,15,59,8.90
2016,11,25,16,00,8.90
2016,11,25,16,01,8.90
2016,11,25,16,02,8.80
2016,11,25,16,03,8.80
2016,11,25,16,04,8.80
2016,11,25,16,05,8.70
2016,11,25,16,06,8.70
2016,11,25,16,07,8.70
2016,11,25,16,08,8.70
2016,11,25,16,09,8.60
2016,11,25,16,10,8.60
2016,11,25,16,11,8.60
2016,11,25,16,12,8.60
2016,11,25,16,13,8.60
2016,11,25,16,14,8.50
2016,11,25,16,15,8.50
2016,11,25,16,16,8.50
2016,11,25,16,17,8.40
2016,11,25,16,18,8.40
2016,11,25,16,19,8.40
2016,11,25,16,20,8.40
2016,11,25,16,21,8.30
2016,11,25,16,22,8.30
2016,11,25,16,23,8.30
2016,11,25,16,24,8.30
2016,11,25,16,25,8.20
2016,11,25,16,26,8.20
2016,11,25,16,27,8.20
2016,11,25,16,28,8.20
2016,11,25,16,29,8.20
2016,11,25,16,30,8.10
2016,11,25,16,31,8.10
2016,11,25,16,32,8.10
2016,11,25,16,33,8.10
2016,11,25,16,34,8.00
2016,11,25,16,35,8.00
2016,11,25,16,36,8.00
2016,11,25,16,37,8.00
2016,11,25,16,38,7.90
2016,11,25,16,39,7.90
2016,11,25,16,40,7.90
2016,11,25,16,41,7.90
2016,11,25,16,42,7.90
2016,11,25,16,43,7.90
2016,11,25,16,44,7.90
2016,11,25,16,45,7.80
2016,11,25,16,46,7.80
2016,11,25,16,47,7.80
2016,11,25,16,48,7.80
2016,11,25,16,49,7.80
2016,11,25,16,50,7.80
2016,11,25,16,51,7.80
2016,11,25,16,52,7.80
2016,11,25,16,53,7.80
2016,11,25,16,54,7.80
2016,11,25,16,55,7.80
2016,11,25,16,56,7.80
2016,11,25,16,57,7.80
2016,11,25,16,58,7.80
2016,11,25,16,59,7.80
2016,11,25,17,00,7.70
2016,11,25,17,01,7.70
2016,11,25,17,02,7.70
2016,11,25,17,03,7.70
2016,11,25,17,04,7.70
2016,11,25,17,05,7.70
2016,11,25,17,06,7.70
2016,11,25,17,07,7.70
2016,11,25,17,08,7.70
2016,11,25,17,09,7.70
2016,11,25,17,10,7.70
2016,11,25,17,11,7.70
2016,11,25,17,12,7.70
2016,11,25,17,13,7.70
2016,11,25,17,14,7.70
2016,11,25,17,15,7.70
2016,11,25,17,16,7.70
2016,11,25,17,17,7.70
2016,11,25,17,18,7.70
2016,11,25,17,19,7.70
2016,11,25,17,20,7.70
2016,11,25,17,21,7.60
2016,11,25,17,22,7.70
2016,11,25,17,23,7.60
2016,11,25,17,24,7.70
2016,11,25,17,25,7.70
2016,11,25,17,26,7.60
2016,11,25,17,27,7.70
2016,11,25,17,28,7.60
2016,11,25,17,29,7.70
2016,11,25,17,30,7.60
2016,11,25,17,31,7.70
2016,11,25,17,32,7.70
2016,11,25,17,33,7.60
2016,11,25,17,34,7.60
2016,11,25,17,35,7.60
2016,11,25,17,36,7.60
2016,11,25,17,37,7.60
2016,11,25,17,38,7.60
2016,11,25,17,39,7.60
2016,11,25,17,40,7.60
2016,11,25,17,41,7.60
2016,11,25,17,42,7.60
2016,11,25,17,43,7.60
2016,11,25,17,44,7.60
2016,11,25,17,45,7.60
2016,11,25,17,46,7.60
2016,11,25,17,47,7.60
2016,11,25,17,48,7.60
2016,11,25,17,49,7.60
2016,11,25,17,50,7.60
2016,11,25,17,51,7.60
2016,11,25,17,52,7.60
2016,11,25,17,53,7.60
2016,11,25,17,54,7.60
2016,11,25,17,55,7.60
2016,11,25,17,56,7.60
2016,11,25,17,57,7.50
2016,11,25,17,58,7.50
2016,11,25,17,59,7.50
2016,11,25,18,00,7.50
2016,11,25,18,01,7.50
2016,11,25,18,02,7.50
2016,11,25,18,03,7.50
2016,11,25,18,04,7.60
2016,11,25,18,05,7.60
2016,11,25,18,06,7.50
2016,11,25,18,07,7.60
2016,11,25,18,08,7.60
2016,11,25,18,09,7.60
2016,11,25,18,10,7.60
2016,11,25,18,11,7.60
2016,11,25,18,12,7.60
2016,11,25,18,13,7.60
2016,11,25,18,14,7.60
2016,11,25,18,15,7.60
2016,11,25,18,16,7.60
2016,11,25,18,17,7.60
2016,11,25,18,18,7.60
2016,11,25,18,19,7.60
2016,11,25,18,20,7.60
2016,11,25,18,21,7.60
2016,11,25,18,22,7.60
2016,11,25,18,23,7.60
2016,11,25,18,24,7.60
2016,11,25,18,25,7.60
2016,11,25,18,26,7.60
2016,11,25,18,27,7.60
2016,11,25,18,28,7.60
2016,11,25,18,29,7.60
2016,11,25,18,30,7.60
2016,11,25,18,31,7.60
2016,11,25,18,32,7.60
2016,11,25,18,33,7.60
2016,11,25,18,34,7.60
2016,11,25,18,35,7.60
2016,11,25,18,36,7.60
2016,11,25,18,37,7.60
2016,11,25,18,38,7.60
2016,11,25,18,39,7.60
2016,11,25,18,40,7.60
2016,11,25,18,41,7.60
2016,11,25,18,42,7.60
2016,11,25,18,43,7.60
2016,11,25,18,44,7.60
2016,11,25,18,45,7.60
2016,11,25,18,46,7.60
2016,11,25,18,47,7.60
2016,11,25,18,48,7.60
2016,11,25,18,49,7.60
2016,11,25,18,50,7.60
2016,11,25,18,51,7.60
2016,11,25,18,52,7.50
2016,11,25,18,53,7.50
2016,11,25,18,54,7.50
2016,11,25,18,55,7.50
2016,11,25,18,56,7.50
2016,11,25,18,57,7.50
2016,11,25,18,58,7.50
2016,11,25,18,59,7.40
2016,11,25,19,00,7.40
2016,11,25,19,01,7.40
2016,11,25,19,02,7.40
2016,11,25,19,03,7.40
2016,11,25,19,04,7.40
2016,11,25,19,05,7.40
2016,11,25,19,06,7.40
2016,11,25,19,07,7.40
2016,11,25,19,08,7.40
2016,11,25,19,09,7.40
2016,11,25,19,10,7.50
2016,11,25,19,11,7.50
2016,11,25,19,12,7.50
2016,11,25,19,13,7.50
2016,11,25,19,14,7.50
2016,11,25,19,15,7.50
2016,11,25,19,16,7.60
2016,11,25,19,17,7.60
2016,11,25,19,18,7.60
2016,11,25,19,19,7.60
2016,11,25,19,20,7.60
2016,11,25,19,21,7.60
2016,11,25,19,22,7.60
2016,11,25,19,23,7.60
2016,11,25,19,24,7.60
2016,11,25,19,25,7.60
2016,11,25,19,26,7.60
2016,11,25,19,27,7.60
2016,11,25,19,28,7.60
2016,11,25,19,29,7.60
2016,11,25,19,30,7.50
2016,11,25,19,31,7.50
2016,11,25,19,32,7.50
2016,11,25,19,33,7.50
2016,11,25,19,34,7.60
2016,11,25,19,35,7.60
2016,11,25,19,36,7.60
2016,11,25,19,37,7.60
2016,11,25,19,38,7.70
2016,11,25,19,39,7.70
2016,11,25,19,40,7.60
2016,11,25,19,41,7.60
2016,11,25,19,42,7.60
2016,11,25,19,43,7.60
2016,11,25,19,44,7.60
2016,11,25,19,45,7.60
2016,11,25,19,46,7.60
2016,11,25,19,47,7.60
2016,11,25,19,48,7.60
2016,11,25,19,49,7.60
2016,11,25,19,50,7.60
2016,11,25,19,51,7.60
2016,11,25,19,52,7.60
2016,11,25,19,53,7.60
2016,11,25,19,54,7.60
2016,11,25,19,55,7.60
2016,11,25,19,56,7.60
2016,11,25,19,57,7.60
2016,11,25,19,58,7.60
2016,11,25,19,59,7.60
2016,11,25,20,00,7.60
2016,11,25,20,01,7.50
2016,11,25,20,02,7.50
2016,11,25,20,03,7.50
2016,11,25,20,04,7.50
2016,11,25,20,05,7.50
2016,11,25,20,06,7.50
2016,11,25,20,07,7.50
2016,11,25,20,08,7.50
2016,11,25,20,09,7.50
2016,11,25,20,10,7.50
2016,11,25,20,11,7.50
2016,11,25,20,12,7.50
2016,11,25,20,13,7.50
2016,11,25,20,14,7.50
2016,11,25,20,15,7.50
2016,11,25,20,16,7.50
2016,11,25,20,17,7.50
2016,11,25,20,18,7.50
2016,11,25,20,19,7.50
2016,11,25,20,20,7.50
2016,11,25,20,21,7.50
2016,11,25,20,22,7.50
2016,11,25,20,23,7.50
2016,11,25,20,24,7.50
2016,11,25,20,25,7.50
2016,11,25,20,26,7.50
2016,11,25,20,27,7.50
2016,11,25,20,28,7.50
2016,11,25,20,29,7.50
2016,11,25,20,30,7.50
2016,11,25,20,31,7.40
2016,11,25,20,32,7.40
2016,11,25,20,33,7.50
2016,11,25,20,34,7.40
2016,11,25,20,35,7.40
2016,11,25,20,36,7.50
2016,11,25,20,37,7.50
2016,11,25,20,38,7.50
2016,11,25,20,39,7.50
2016,11,25,20,40,7.50
2016,11,25,20,41,7.50
2016,11,25,20,42,7.50
2016,11,25,20,43,7.50
2016,11,25,20,44,7.60
2016,11,25,20,45,7.60
2016,11,25,20,46,7.60
2016,11,25,20,47,7.60
2016,11,25,20,48,7.60
2016,11,25,20,49,7.60
2016,11,25,20,50,7.60
2016,11,25,20,51,7.60
2016,11,25,20,52,7.60
2016,11,25,20,53,7.60
2016,11,25,20,54,7.60
2016,11,25,20,55,7.60
2016,11,25,20,56,7.60
2016,11,25,20,57,7.60
2016,11,25,20,58,7.70
2016,11,25,20,59,7.70
2016,11,25,21,00,7.70
2016,11,25,21,01,7.70
2016,11,25,21,02,7.70
2016,11,25,21,03,7.70